Notices

What's New in latest Release from April 7th, 2021:

- Updated Glossary, including Speed of Maximum Gust, and Total Hourly Precipitation

- Updated national and regional climate services offices contacts and prices information

- Addition of station inventory lists for 1981-2010, 1971-2000, and 1961-1990 Normals.

If you haven't already, please take our survey and provide feedback about our website: https://eccc.sondage-survey.ca/f/LanguageSelection.aspx?s=442ca660-fcf1-47c0-95a9-59707d6fd709

Hourly Data Report for November 04, 2019

SHEARWATER RCS
NOVA SCOTIA
Current Station Operator: ECCC - MSC

44°37'47.000" N
63°30'48.000" W
24.00 m
8205092
71264
AAW

Download Data

Hourly Data (November 2019)
Hourly Data Report for November 4, 2019
TIME
LST
Temp Definition
°C
Dew Point Definition
°C
Rel Hum Definition
%
Precip. Amount Definition
mm

Wind Dir Definition
10's deg

Wind Spd Definition
km/h
Visibility Definition
km
Stn Press Definition
kPa
Hmdx Definition


Wind Chill Definition


Weather Definition


00:00 3.9 0.9 81 0.0 0 1   101.62     LegendNANA
01:00 3.9 1.2 83 0.0 29 4   101.65     LegendNANA
02:00 5.0 2.1 82 0.0 28 5   101.70     LegendNANA
03:00 4.2 1.4 82 0.0 30 8   101.74     LegendNANA
04:00 3.9 1.2 82 0.0 32 6   101.80     LegendNANA
05:00 1.4 -0.6 87 0.0   0   101.84     LegendNANA
06:00 2.1 0.4 89 0.0   0   101.92     LegendNANA
07:00 2.1 0.4 89 0.0 34 3   101.98     LegendNANA
08:00 4.9 2.4 84 0.0 28 5   102.08     LegendNANA
09:00 7.9 2.7 70 0.0 25 6   102.15     LegendNANA
10:00 8.2 1.1 61 0.0 30 11   102.21     LegendNANA
11:00 9.7 1.9 58 0.0 31 10   102.22     LegendNANA
12:00 9.7 0.6 53 0.0 30 8   102.21     LegendNANA
13:00 10.8 -1.5 42 0.0 28 9   102.22     LegendNANA
14:00 10.9 -1.7 41 0.0 30 12   102.25     LegendNANA
15:00 10.6 -2.9 39 0.0 31 13   102.29     LegendNANA
16:00 9.9 -4.1 37 0.0 31 10   102.38     LegendNANA
17:00 8.4 -4.7 39 0.0 30 8   102.45     LegendNANA
18:00 5.3 -3.2 54 0.0   0   102.54     LegendNANA
19:00 4.0 -1.5 67 0.0 29 3   102.60     LegendNANA
20:00 4.7 -1.5 64 0.0 34 4   102.66     LegendNANA
21:00 2.8 -2.0 71 0.0 33 1   102.66     LegendNANA
22:00 2.6 -0.6 79 0.0 5 8   102.68     LegendNANA
23:00 2.2 -1.7 75 0.0 5 6   102.73     LegendNANA

Notes on Data Quality.

Legend

  • E = Estimated
  • M = Missing
  • NA = Not Available*
  • [empty] = Indicates an unobserved value
Date modified: